Back to catalog

ATLAS 5 CENTAUR DEB

AliveHEO
NORAD 44680·DEBRIS·🇺🇸 United States

Launched Oct 17, 2018 from Cape Canaveral Space Force Station

Loading…

Next Passes (next 24 hours)

TLE

FreshSource: Space-Track

Epoch: Sep 13, 2026, 12:02 UTC

1 44680U 18079AS  26256.50188779 -.00000161  00000-0  00000+0 0  9991
2 44680  13.4302  41.9477 4691822 297.1414  22.9759  1.75587513 47017

Track ATLAS 5 CENTAUR DEB in real time with AllMySat

Download on the App Store